Regional Weather Roundup
Issued by NWS Northern Indiana

Home | Current Version | Previous Version | Text Only | Print | Product List | Glossary Off
Versions: 1 2 3 4 5 6 7 8 9 10 11 12 13 14 15 16 17 18 19 20 21 22 23 24 25 26 27 28 29 30 31 32 33 34 35 36 37 38 39 40 41 42 43 44 45 46 47 48 49 50

000
ASUS43 KIWX 220401
RWRIWX

KIWX WEATHER ROUNDUP
NATIONAL WEATHER SERVICE NORTHERN INDIANA
1200 AM EDT TUE AUG 22 2017

NOTE: "FAIR" INDICATES FEW OR NO CLOUDS BELOW 12,000 FEET WITH NO
SIGNIFICANT WEATHER AND/OR OBSTRUCTIONS TO VISIBILITY.

* THESE STATIONS ARE NOT UNDER NWS QUALITY CONTROL. THEY ALSO MAY NOT
  REPORT WEATHER SUCH AS PRECIPITATION OR FOG.

INZ001>027-220500-
NORTHERN INDIANA

CITY           SKY/WX    TMP DP  RH WIND       PRES   REMARKS
MICHIGAN CITY* PTCLDY    75  68  78 S13       29.96F
SOUTH BEND     PTCLDY    75  73  93 SW10      29.96F
GOSHEN         PTCLDY    75  68  78 SW10      29.98F
MONTICELLO*    CLOUDY    74  72  93 S7        29.99F
FORT WAYNE     MOCLDY    73  69  87 SW8       30.01F
PERU/GRISSOM   PTCLDY    72  71  95 S7        30.00F

$$
INZ028>050-220500-
CENTRAL INDIANA

CITY           SKY/WX    TMP DP  RH WIND       PRES   REMARKS
LAFAYETTE      CLOUDY    73  70  90 SW3       30.00F
KOKOMO*        PTCLDY    72  69  90 S7        30.02F
MUNCIE*        PTCLDY    77  68  73 S9        30.04F
INDIANAPOLIS   CLOUDY    74  71  91 S8        30.03F

$$
MIZ043>046-050>051-056>058-064>065-071>073-077>080-220500-
SOUTHWEST LOWER MICHIGAN

CITY           SKY/WX    TMP DP  RH WIND       PRES   REMARKS
BATTLE CREEK   CLOUDY    70  69  97 SE5       29.97F
BENTON HARBOR  PTCLDY    77  70  79 S8        29.93F
COLDWATER*     CLOUDY    75  72  90 CALM      29.99F
HILLSDALE*     CLOUDY    73  68  83 CALM      30.01F
HOLLAND        PTCLDY    69  66  90 S5        29.93F
GRAND RAPIDS   CLOUDY    70  69  97 S7        29.93F
KALAMAZOO      CLOUDY    71  68  90 S6        29.96F
STURGIS*       MOCLDY    73  71  93 S6        29.98F
THREE RIVERS*  FAIR      75  71  88 S6        29.97F

$$
OHZ001>008-015>018-024>025-220500-
NORTHWEST OHIO

CITY           SKY/WX    TMP DP  RH WIND       PRES   REMARKS
DEFIANCE       CLEAR     74  68  81 SW8       30.00F
FINDLAY        CLEAR     75  69  81 SW9       30.02S
TOLEDO EXPRESS PTCLDY    76  71  85 SW12      29.99F
TOLEDO METCALF MOCLDY    77  71  82 SW13      30.01R
LIMA           PTCLDY    73  71  93 S8        30.05S

$$
AND FOR LAKE MICHIGAN COASTAL AND OPEN LAKE BUOY OBSERVATIONS

STATION/POSITION TEMP    WIND        PRES    VSBY  WAVE
                 AIR SEA DIR/SP/G                  HT/PER
                 (F)     (DEG/KT/KT) (MB)    (MI)  (FT/S)
CALUMET HARBOR    78     200/  6/  9 1013.3F
MICHIGAN CITY     77     180/ 14/ 16   N/A
BURNS HARBOR      77     190/ 14/ 19 1014.2F
SAINT JOSEPH      78     190/  6/ 10 1014.9
SOUTH LAKE BUOY   76 72  250/ 14/ 16 1013.0          1/ 3
4 MI NW BRIDGMAN  77 74  210/ 12/ 16 1013.2F         1/ 2
MICHIGAN CITY     77 75  210/ 16/ 19   N/A           1

$$
&&




USA.gov is the U.S. government's official web portal to all federal, state and local government web resources and services.